Mount Pleasant, TN

9:53 AM CST on December 05, 2016 (GMT -0600)
Maury County

Weather History for KMRC - January, 2014

Change the Weather History Date:

Monday, January 20, 2014

  Actual Average (KBNA) Record (KBNA)
Temperature  
Mean Temperature 48 °F 38 °F  
Max Temperature 64 °F 47 °F 72 °F (1906)
Min Temperature 33 °F 28 °F -16 °F (1985)
Degree Days  
Heating Degree Days 16    
Month to date heating degree days  
Since 1 July heating degree days  
Cooling Degree Days 0    
Month to date cooling degree days  
Year to date cooling degree days  
Moisture  
Dew Point 33 °F    
Average Humidity 59    
Maximum Humidity 81    
Minimum Humidity 37    
Precipitation  
Precipitation 0.00 in 0.13 in 2.43 in (1935)
Month to date precipitation 2.37  
Year to date precipitation 2.37  
Sea Level Pressure  
Sea Level Pressure 29.90 in    
Wind  
Wind Speed 6 mph (SW)    
Max Wind Speed 13 mph    
Max Gust Speed -    
Visibility 10 miles    
Events      
T = Trace of Precipitation, MM = Missing Value Source: NWS Daily Summary

Daily Weather History Graph

Daily Weather History Graph

Search for Another Location

Airport or City:

Trip Planner

Search our weather history database for the weather conditions in past years. The results will help you decide how hot, cold, wet, or windy it might be!

Date:

Astronomy

Jan. 20, 2014 Rise Set
Actual Time 6:55 AM CST 5:04 PM CST
Civil Twilight 6:28 AM CST 5:31 PM CST
Nautical Twilight 5:57 AM CST 6:02 PM CST
Astronomical Twilight 5:26 AM CST 6:33 PM CST
Moon 9:27 PM CST (1/20) 9:05 AM CST (1/20)
Length of Visible Light 11h 03m
Length of Day
10h 08m
Waning Gibbous, 82% of the Moon is Illuminated
Jan 20
Waning Gibbous
Jan 23
Last Quarter
Jan 30
New
Feb 6
First Quarter
Feb 14
Full

Hourly Weather History & Observations

Time (CST) Temp. Windchill Dew Point Humidity Pressure Visibility Wind Dir Wind Speed Gust Speed Precip Events Conditions
12:35 AM 37.4 °F 32.8 °F 26.6 °F 65% 29.95 in 10.0 mi SW 5.8 mph - N/A   Clear
12:55 AM 37.4 °F 33.8 °F 26.6 °F 65% 29.96 in 10.0 mi WSW 4.6 mph - N/A   Clear
1:15 AM 35.6 °F 32.8 °F 26.6 °F 70% 29.96 in 10.0 mi SW 3.5 mph - N/A   Clear
1:35 AM 33.8 °F 25.8 °F 26.6 °F 75% 29.96 in 10.0 mi SSW 10.4 mph - N/A   Clear
1:55 AM 35.6 °F 29.2 °F 26.6 °F 70% 29.96 in 10.0 mi SW 8.1 mph - N/A   Clear
2:15 AM 35.6 °F 29.9 °F 26.6 °F 70% 29.97 in 10.0 mi SW 6.9 mph - N/A   Clear
2:35 AM 33.8 °F 27.0 °F 26.6 °F 75% 29.96 in 10.0 mi SSW 8.1 mph - N/A   Clear
2:55 AM 35.6 °F 29.2 °F 26.6 °F 70% 29.96 in 10.0 mi SW 8.1 mph - N/A   Clear
3:15 AM 35.6 °F 29.9 °F 26.6 °F 70% 29.96 in 10.0 mi SW 6.9 mph - N/A   Clear
3:35 AM 35.6 °F 29.2 °F 28.4 °F 75% 29.95 in 10.0 mi SW 8.1 mph - N/A   Clear
3:55 AM 35.6 °F 28.6 °F 28.4 °F 75% 29.94 in 10.0 mi SW 9.2 mph - N/A   Clear
4:15 AM 37.4 °F 31.4 °F 28.4 °F 70% 29.94 in 10.0 mi SW 8.1 mph - N/A   Clear
4:35 AM 35.6 °F 30.7 °F 28.4 °F 75% 29.94 in 10.0 mi SW 5.8 mph - N/A   Clear
4:55 AM 35.6 °F 31.7 °F 26.6 °F 70% 29.94 in 10.0 mi SSW 4.6 mph - N/A   Clear
5:15 AM 35.6 °F 29.9 °F 28.4 °F 75% 29.94 in 10.0 mi SSW 6.9 mph - N/A   Clear
5:35 AM 35.6 °F 29.9 °F 28.4 °F 75% 29.93 in 10.0 mi SSW 6.9 mph - N/A   Clear
5:55 AM 35.6 °F 29.9 °F 28.4 °F 75% 29.94 in 10.0 mi SW 6.9 mph - N/A   Clear
6:15 AM 35.6 °F 30.7 °F 26.6 °F 70% 29.94 in 10.0 mi SSW 5.8 mph - N/A   Clear
6:35 AM 35.6 °F 32.8 °F 26.6 °F 70% 29.94 in 10.0 mi South 3.5 mph - N/A   Clear
6:55 AM 35.6 °F 32.8 °F 28.4 °F 75% 29.94 in 10.0 mi South 3.5 mph - N/A   Clear
7:15 AM 37.4 °F 32.8 °F 28.4 °F 70% 29.94 in 10.0 mi South 5.8 mph - N/A   Clear
7:35 AM 37.4 °F 32.1 °F 28.4 °F 70% 29.95 in 10.0 mi SSW 6.9 mph - N/A   Clear
7:55 AM 39.2 °F 35.0 °F 30.2 °F 70% 29.95 in 10.0 mi SW 5.8 mph - N/A   Clear
8:15 AM 42.8 °F 39.3 °F 30.2 °F 61% 29.96 in 10.0 mi SW 5.8 mph - N/A   Clear
8:35 AM 44.6 °F 41.4 °F 32.0 °F 61% 29.96 in 10.0 mi SW 5.8 mph - N/A   Clear
8:55 AM 46.4 °F 44.3 °F 32.0 °F 57% 29.97 in 10.0 mi SW 4.6 mph - N/A   Clear
9:15 AM 48.2 °F - 32.0 °F 54% 29.97 in 10.0 mi SW 9.2 mph - N/A   Clear
9:35 AM 51.8 °F - 33.8 °F 50% 29.98 in 10.0 mi WSW 5.8 mph - N/A   Clear
9:55 AM 51.8 °F - 33.8 °F 50% 29.98 in 10.0 mi WSW 9.2 mph - N/A   Clear
10:15 AM 53.6 °F - 35.6 °F 51% 29.98 in 10.0 mi WSW 6.9 mph - N/A   Clear
10:35 AM 55.4 °F - 35.6 °F 47% 29.97 in 10.0 mi SW 8.1 mph - N/A   Clear
10:55 AM 55.4 °F - 35.6 °F 47% 29.96 in 10.0 mi Variable 4.6 mph - N/A   Clear
11:15 AM 57.2 °F - 35.6 °F 44% 29.95 in 10.0 mi WSW 8.1 mph - N/A   Clear
11:35 AM 57.2 °F - 35.6 °F 44% 29.94 in 9.0 mi WSW 8.1 mph - N/A   Clear
11:55 AM 59.0 °F - 37.4 °F 45% 29.92 in 10.0 mi SW 6.9 mph - N/A   Clear
12:15 PM 60.8 °F - 37.4 °F 42% 29.91 in 10.0 mi West 5.8 mph - N/A   Clear
12:35 PM 60.8 °F - 37.4 °F 42% 29.90 in 10.0 mi West 8.1 mph - N/A   Clear
12:55 PM 62.6 °F - 37.4 °F 39% 29.89 in 10.0 mi SW 10.4 mph - N/A   Clear
1:15 PM 62.6 °F - 37.4 °F 39% 29.88 in 10.0 mi WSW 12.7 mph - N/A   Clear
1:35 PM 62.6 °F - 37.4 °F 39% 29.87 in 10.0 mi SW 8.1 mph - N/A   Clear
1:55 PM 62.6 °F - 37.4 °F 39% 29.86 in 10.0 mi SW 8.1 mph - N/A   Clear
2:15 PM 62.6 °F - 37.4 °F 39% 29.86 in 10.0 mi Variable 3.5 mph - N/A   Clear
2:35 PM 64.4 °F - 39.2 °F 40% 29.85 in 10.0 mi West 4.6 mph - N/A   Clear
2:55 PM 64.4 °F - 37.4 °F 37% 29.85 in 10.0 mi WSW 3.5 mph - N/A   Clear
3:15 PM 64.4 °F - 37.4 °F 37% 29.84 in 10.0 mi WSW 5.8 mph - N/A   Clear
3:35 PM 64.4 °F - 37.4 °F 37% 29.84 in 10.0 mi West 5.8 mph - N/A   Clear
3:55 PM 62.6 °F - 37.4 °F 39% 29.85 in 10.0 mi West 5.8 mph - N/A   Clear
4:15 PM 62.6 °F - 37.4 °F 39% 29.85 in 10.0 mi West 4.6 mph - N/A   Clear
4:35 PM 62.6 °F - 37.4 °F 39% 29.85 in 10.0 mi West 3.5 mph - N/A   Clear
4:55 PM 59.0 °F - 35.6 °F 42% 29.85 in 10.0 mi SW 4.6 mph - N/A   Clear
5:15 PM 53.6 °F - 35.6 °F 51% 29.85 in 10.0 mi SSW 5.8 mph - N/A   Clear
5:35 PM 51.8 °F - 35.6 °F 54% 29.85 in 10.0 mi SSW 6.9 mph - N/A   Clear
5:55 PM 51.8 °F - 33.8 °F 50% 29.85 in 10.0 mi SSW 4.6 mph - N/A   Clear
6:15 PM 51.8 °F - 33.8 °F 50% 29.85 in 10.0 mi South 3.5 mph - N/A   Clear
6:35 PM 48.2 °F - 33.8 °F 58% 29.85 in 10.0 mi Calm Calm - N/A   Clear
6:55 PM 46.4 °F - 33.8 °F 62% 29.85 in 10.0 mi Calm Calm - N/A   Clear
7:15 PM 44.6 °F - 33.8 °F 66% 29.85 in 10.0 mi Calm Calm - N/A   Clear
7:35 PM 46.4 °F - 33.8 °F 62% 29.85 in 10.0 mi Calm Calm - N/A   Clear
7:55 PM 44.6 °F - 33.8 °F 66% 29.84 in 10.0 mi Calm Calm - N/A   Clear
8:15 PM 42.8 °F 41.1 °F 33.8 °F 70% 29.84 in 10.0 mi SW 3.5 mph - N/A   Clear
8:35 PM 39.2 °F 35.0 °F 33.8 °F 81% 29.84 in 10.0 mi SW 5.8 mph - N/A   Clear
8:55 PM 39.2 °F 35.0 °F 32.0 °F 75% 29.83 in 10.0 mi SW 5.8 mph - N/A   Clear
9:15 PM 41.0 °F 36.4 °F 33.8 °F 76% 29.82 in 10.0 mi SSW 6.9 mph - N/A   Clear
9:35 PM 44.6 °F 42.2 °F 33.8 °F 66% 29.83 in 10.0 mi WSW 4.6 mph - N/A   Clear
9:55 PM 44.6 °F 39.7 °F 33.8 °F 66% 29.83 in 10.0 mi SSW 9.2 mph - N/A   Clear
10:15 PM 46.4 °F 42.9 °F 33.8 °F 62% 29.83 in 10.0 mi SW 6.9 mph - N/A   Clear
10:35 PM 46.4 °F 43.5 °F 33.8 °F 62% 29.83 in 10.0 mi WSW 5.8 mph - N/A   Clear
10:55 PM 46.4 °F 43.5 °F 33.8 °F 62% 29.83 in 10.0 mi SW 5.8 mph - N/A   Scattered Clouds
11:15 PM 46.4 °F 43.5 °F 33.8 °F 62% 29.82 in 10.0 mi WSW 5.8 mph - N/A   Partly Cloudy
11:35 PM 44.6 °F 42.2 °F 33.8 °F 66% 29.81 in 10.0 mi WSW 4.6 mph - N/A   Clear
11:55 PM 42.8 °F - 32.0 °F 66% 29.81 in 10.0 mi Calm Calm - N/A   Partly Cloudy